Boonville, MO

1:20 AM CDT on October 23, 2017 (GMT -0500)
Viertel Memorial

Weather History for KVER - March, 2013

Change the Weather History Date:

Monday, March 25, 2013

  Actual Average Record
Temperature  
Mean Temperature 30 °F -  
Max Temperature 78 °F 53 °F 98 °F (2014)
Min Temperature 26 °F 34 °F 9 °F (1974)
Degree Days  
Heating Degree Days 36    
Moisture  
Dew Point 24 °F    
Average Humidity 78    
Maximum Humidity 92    
Minimum Humidity 67    
Precipitation  
Precipitation 0.00 in - - ()
Sea Level Pressure  
Sea Level Pressure 30.09 in    
Wind  
Wind Speed 11 mph (WNW)    
Max Wind Speed 16 mph    
Max Gust Speed 23 mph    
Visibility 7 miles    
Events Snow    
Averages and records for this station are not official NWS values.
T = Trace of Precipitation, MM = Missing Value Source: NWS Daily Summary

Daily Weather History Graph

Daily Weather History Graph

Search for Another Location

Airport or City:

Trip Planner

Search our weather history database for the weather conditions in past years. The results will help you decide how hot, cold, wet, or windy it might be!

Date:

Astronomy

Mar. 25, 2013 Rise Set
Actual Time 7:05 AM CDT 7:27 PM CDT
Civil Twilight 6:39 AM CDT 7:54 PM CDT
Nautical Twilight 6:07 AM CDT 8:25 PM CDT
Astronomical Twilight 5:35 AM CDT 8:58 PM CDT
Moon 6:00 PM CDT (3/25) 5:48 AM CDT (3/25)
Length of Visible Light 13h 15m
Length of Day
12h 21m
Waxing Gibbous, 96% of the Moon is Illuminated
Mar 25
Waxing Gibbous
Mar 27
Full
Apr 2
Last Quarter
Apr 10
New
Apr 18
First Quarter

Hourly Weather History & Observations

Time (CDT) Temp. Windchill Dew Point Humidity Pressure Visibility Wind Dir Wind Speed Gust Speed Precip Events Conditions
12:15 AM 29.8 °F 19.8 °F 23.2 °F 76% 29.98 in 10.0 mi WNW 12.7 mph - N/A   Overcast
12:35 AM 29.5 °F 18.8 °F 22.8 °F 76% 29.98 in 10.0 mi WNW 13.8 mph 21.9 mph N/A   Overcast
12:55 AM 29.1 °F 18.4 °F 22.6 °F 77% 29.98 in 10.0 mi WNW 13.8 mph 19.6 mph N/A   Overcast
1:15 AM 28.8 °F 19.5 °F 22.6 °F 78% 29.98 in 10.0 mi WNW 10.4 mph 16.1 mph N/A   Overcast
1:35 AM 28.2 °F 19.5 °F 22.5 °F 79% 29.98 in 7.0 mi WNW 9.2 mph 18.4 mph N/A Snow Light Snow
1:55 AM 27.5 °F 18.6 °F 22.6 °F 82% 29.98 in 5.0 mi WNW 9.2 mph 17.3 mph N/A Snow Light Snow
2:15 AM 27.1 °F 17.5 °F 22.8 °F 84% 29.98 in 7.0 mi WNW 10.4 mph 16.1 mph N/A Snow Light Snow
2:35 AM 27.1 °F 18.2 °F 22.6 °F 83% 29.98 in 7.0 mi WNW 9.2 mph 17.3 mph N/A   Overcast
2:55 AM 27.1 °F 18.2 °F 22.6 °F 83% 29.97 in 7.0 mi WNW 9.2 mph 17.3 mph N/A   Overcast
3:15 AM 27.1 °F 17.5 °F 22.8 °F 84% 29.96 in 7.0 mi West 10.4 mph 17.3 mph N/A   Overcast
3:35 AM 26.6 °F 17.5 °F 22.6 °F 85% 29.96 in 10.0 mi WNW 9.2 mph - N/A   Overcast
3:55 AM 26.6 °F 16.2 °F 22.5 °F 84% 29.96 in 10.0 mi WNW 11.5 mph - N/A   Overcast
4:15 AM 26.4 °F 16.6 °F 22.1 °F 84% 29.96 in 10.0 mi WNW 10.4 mph 18.4 mph N/A   Overcast
4:35 AM 26.2 °F 16.4 °F 22.1 °F 84% 29.96 in 10.0 mi WNW 10.4 mph - N/A   Overcast
4:55 AM 26.2 °F 16.4 °F 22.1 °F 84% 29.96 in 10.0 mi WNW 10.4 mph 16.1 mph N/A   Overcast
5:15 AM 26.4 °F 16.0 °F 22.3 °F 84% 29.97 in 10.0 mi WNW 11.5 mph 19.6 mph N/A   Overcast
5:35 AM 26.6 °F 16.8 °F 22.5 °F 84% 29.98 in 10.0 mi WNW 10.4 mph 17.3 mph N/A   Overcast
5:55 AM 26.6 °F 19.1 °F 22.6 °F 85% 29.98 in 7.0 mi WNW 6.9 mph - N/A   Overcast
6:15 AM 26.6 °F 18.2 °F 22.8 °F 86% 29.99 in 7.0 mi WNW 8.1 mph - N/A   Overcast
6:35 AM 26.6 °F 18.2 °F 23.0 °F 86% 29.99 in 7.0 mi WNW 8.1 mph - N/A   Overcast
6:55 AM 27.0 °F 18.7 °F 23.0 °F 85% 30.00 in 10.0 mi WNW 8.1 mph 16.1 mph N/A   Overcast
7:15 AM 27.0 °F 18.7 °F 23.0 °F 85% 30.00 in 7.0 mi WNW 8.1 mph - N/A   Overcast
7:35 AM 27.0 °F 17.3 °F 23.4 °F 86% 30.01 in 4.0 mi West 10.4 mph - N/A Snow Light Snow
7:55 AM 27.1 °F 17.5 °F 24.1 °F 88% 30.02 in 1.8 mi West 10.4 mph 16.1 mph N/A Snow Light Snow
8:15 AM 27.3 °F 17.7 °F 25.2 °F 92% 30.02 in 1.2 mi WNW 10.4 mph - N/A Snow Light Snow
8:35 AM 27.9 °F 19.1 °F 25.9 °F 92% 30.03 in 1.5 mi West 9.2 mph 16.1 mph N/A Snow Light Snow
8:55 AM 28.4 °F 19.1 °F 26.1 °F 91% 30.04 in 1.8 mi WNW 10.4 mph - N/A Snow Light Snow
9:15 AM 29.1 °F 20.0 °F 26.2 °F 89% 30.04 in 1.8 mi West 10.4 mph 17.3 mph N/A Snow Light Snow
9:35 AM 29.8 °F 20.9 °F 26.4 °F 87% 30.05 in 2.5 mi West 10.4 mph 17.3 mph N/A Snow Light Snow
9:55 AM 30.6 °F 21.2 °F 26.6 °F 85% 30.05 in 3.0 mi WNW 11.5 mph 17.3 mph N/A   Haze
10:15 AM 31.5 °F 22.9 °F 26.8 °F 83% 30.06 in 3.0 mi WNW 10.4 mph 16.1 mph N/A   Haze
10:35 AM 32.0 °F 23.0 °F 27.1 °F 82% 30.07 in 2.0 mi WNW 11.5 mph 16.1 mph N/A   Haze
10:55 AM 32.0 °F 24.8 °F 27.9 °F 85% 30.08 in 2.5 mi WNW 8.1 mph 16.1 mph N/A   Overcast
11:15 AM 32.5 °F 22.7 °F 27.9 °F 83% 30.08 in 3.0 mi WNW 13.8 mph 20.7 mph N/A   Haze
11:35 AM 33.1 °F 23.4 °F 27.3 °F 79% 30.09 in 5.0 mi WNW 13.8 mph 19.6 mph N/A   Haze
11:55 AM 32.9 °F 22.4 °F 26.8 °F 78% 30.09 in 5.0 mi NW 16.1 mph 21.9 mph N/A   Haze
12:15 PM 33.1 °F 23.9 °F 26.6 °F 77% 30.10 in 4.0 mi WNW 12.7 mph 23.0 mph N/A   Haze
12:35 PM 32.9 °F 24.7 °F 27.0 °F 79% 30.11 in 2.5 mi WNW 10.4 mph 20.7 mph N/A   Haze
12:55 PM 32.5 °F 24.8 °F 27.0 °F 80% 30.11 in 3.0 mi WNW 9.2 mph 23.0 mph N/A   Haze
1:15 PM 32.4 °F 23.0 °F 27.0 °F 80% 30.11 in 2.5 mi WNW 12.7 mph 17.3 mph N/A Snow Light Snow
1:35 PM 32.9 °F 24.7 °F 26.8 °F 78% 30.11 in 4.0 mi WNW 10.4 mph 18.4 mph N/A   Haze
1:55 PM 32.4 °F 23.5 °F 26.2 °F 78% 30.11 in 4.0 mi WNW 11.5 mph 18.4 mph N/A Snow Light Snow
2:15 PM 32.7 °F 23.4 °F 25.7 °F 75% 30.11 in 3.0 mi NW 12.7 mph 18.4 mph N/A   Haze
2:35 PM 33.4 °F 24.8 °F 25.5 °F 73% 30.11 in 7.0 mi WNW 11.5 mph 20.7 mph N/A   Overcast
2:55 PM 32.7 °F 25.0 °F 26.1 °F 76% 30.12 in 2.5 mi WNW 9.2 mph 17.3 mph N/A Snow Light Snow
3:15 PM 32.2 °F 23.2 °F 25.7 °F 77% 30.12 in 7.0 mi NW 11.5 mph 23.0 mph N/A   Overcast
3:35 PM 32.0 °F 22.1 °F 24.4 °F 74% 30.13 in 10.0 mi NW 13.8 mph 19.6 mph N/A   Overcast
3:55 PM 32.0 °F 22.1 °F 23.5 °F 71% 30.13 in 10.0 mi NW 13.8 mph 18.4 mph N/A   Overcast
4:15 PM 32.2 °F 23.8 °F 23.2 °F 69% 30.14 in 10.0 mi NW 10.4 mph 21.9 mph N/A   Overcast
4:35 PM 32.4 °F 23.0 °F 22.8 °F 68% 30.14 in 10.0 mi WNW 12.7 mph 17.3 mph N/A   Overcast
4:55 PM 32.2 °F 25.0 °F 22.8 °F 68% 30.15 in 10.0 mi WNW 8.1 mph 16.1 mph N/A   Overcast
5:15 PM 32.2 °F 23.2 °F 23.4 °F 70% 30.15 in 10.0 mi WNW 11.5 mph - N/A   Overcast
5:35 PM 32.2 °F 24.4 °F 23.7 °F 71% 30.16 in 10.0 mi WNW 9.2 mph - N/A   Overcast
5:55 PM 32.2 °F 24.4 °F 24.4 °F 73% 30.16 in 10.0 mi WNW 9.2 mph - N/A Snow Light Snow
6:15 PM 32.2 °F 25.0 °F 24.3 °F 73% 30.17 in 10.0 mi NW 8.1 mph - N/A   Overcast
6:35 PM 32.4 °F 25.3 °F 23.4 °F 69% 30.18 in 10.0 mi WNW 8.1 mph 16.1 mph N/A   Overcast
6:55 PM 32.2 °F 23.2 °F 23.0 °F 69% 30.18 in 10.0 mi WNW 11.5 mph - N/A   Overcast
7:15 PM 32.2 °F 25.0 °F 23.5 °F 70% 30.19 in 10.0 mi NW 8.1 mph - N/A   Overcast
7:35 PM 32.0 °F 25.6 °F 23.7 °F 71% 30.19 in 10.0 mi WNW 6.9 mph - N/A   Overcast
7:55 PM 32.2 °F 25.8 °F 23.5 °F 70% 30.20 in 10.0 mi West 6.9 mph - N/A   Overcast
8:15 PM 32.2 °F 25.0 °F 23.0 °F 69% 30.21 in 10.0 mi WNW 8.1 mph - N/A   Overcast
8:35 PM 32.2 °F 24.4 °F 22.6 °F 68% 30.22 in 10.0 mi NW 9.2 mph - N/A   Overcast
8:55 PM 32.2 °F 25.0 °F 22.8 °F 68% 30.22 in 10.0 mi WNW 8.1 mph - N/A   Mostly Cloudy
9:15 PM 32.0 °F 24.8 °F 22.8 °F 69% 30.23 in 10.0 mi WNW 8.1 mph - N/A   Overcast
9:35 PM 32.0 °F 24.2 °F 22.8 °F 69% 30.24 in 10.0 mi NW 9.2 mph - N/A   Overcast
9:55 PM 32.0 °F 24.2 °F 22.6 °F 68% 30.24 in 10.0 mi WNW 9.2 mph - N/A   Overcast
10:15 PM 32.0 °F 25.6 °F 22.1 °F 67% 30.25 in 10.0 mi WNW 6.9 mph - N/A   Scattered Clouds
10:35 PM 31.6 °F 24.4 °F 21.9 °F 67% 30.25 in 10.0 mi WNW 8.1 mph - N/A   Scattered Clouds
10:55 PM 31.6 °F 26.0 °F 21.7 °F 67% 30.26 in 10.0 mi WNW 5.8 mph - N/A   Overcast
11:15 PM 31.5 °F 24.2 °F 21.6 °F 67% 30.27 in 10.0 mi WNW 8.1 mph - N/A   Mostly Cloudy
11:35 PM 31.3 °F 25.6 °F 21.6 °F 67% 30.27 in 10.0 mi WNW 5.8 mph - N/A   Overcast
11:55 PM 31.1 °F 25.4 °F 21.9 °F 69% 30.27 in 10.0 mi WNW 5.8 mph - N/A   Overcast